Location: Asheville, NC
(35.6000°N, 82.5500°W)
Time: 14:52:16
(UTC-05:00)

STARS - Pass Details

Date: 06 January 2018
Orbit: 625 x 641 km, 98.3° (Epoch: 17 January)

Event Time Altitude Azimuth Distance (km) Brightness Sun altitude
Rises 19:43:19 0° 351° (N) 2,920 ? -26.0°
Reaches altitude 10° 19:46:19 10° 329° (NNW) 2,011 ? -26.6°
Maximum altitude 19:48:48 15° 294° (WNW) 1,694 ? -27.1°
Drops below altitude 10° 19:51:18 10° 259° (WSW) 2,009 ? -27.6°
Sets 19:54:18 0° 236° (SW) 2,916 ? -28.2°
